Find Starlink 5588

NORAD ID: 55375 Int'l Des: 2023-013 Owner: SPXS Country: US Constellation: starlink operational
LEOCIRCULAR

現在のビュー

3D地球を読み込み中...

Starlink 5588について

説明を読み込み中...

次回通過

Passes for default location (London). Set your location on the main map for personalized predictions.

高度履歴

Loading altitude history...

軌道要素

1 55375U 23013AW 26150.55381990 -.00000061 00000-0 73272-5 0 9992
2 55375 43.0029 219.1659 0001453 293.6105 66.4594 15.27577742183987
Epoch: May 30, 2026 • Age: 24 hours

現在のステータス

高度 487.1 km
速度 7.63 km/s
衛星直下点 43.02°N, 138.49°W
打ち上げ日 Jan 26, 2023
運用期間 3.3 years
タイプ internet

技術仕様

分類 Payload
質量 305.00 kg
乾燥質量 290.00 kg
総質量 305.00 kg
長さ 0.20 m
直径 2.80 m
スパン 9.00 m
形状 Box + pan
製造者 SPXS
バスタイプ Starlink
フェーズステータス In Orbit
所有者/国 SPXS/US

Most Searched